Ankeny, IA

3:25 AM CST on December 09, 2016 (GMT -0600)
Ankeny Regional

Weather History for KIKV - July, 2014

Change the Weather History Date:

Tuesday, July 22, 2014

  Actual Average (KDSM) Record (KDSM)
Temperature  
Mean Temperature 82 °F -  
Max Temperature 89 °F 84 °F 109 °F (1901)
Min Temperature 73 °F 66 °F 51 °F (1947)
Cooling Degree Days 17    
Growing Degree Days 32 (Base 50)    
Moisture  
Dew Point 74 °F    
Average Humidity 75    
Maximum Humidity 89    
Minimum Humidity 55    
Precipitation  
Precipitation 0.00 in - - ()
Sea Level Pressure  
Sea Level Pressure 29.98 in    
Wind  
Wind Speed 10 mph (NW)    
Max Wind Speed 17 mph    
Max Gust Speed 22 mph    
Visibility 9 miles    
Events      
Averages and records for this station are not official NWS values.
T = Trace of Precipitation, MM = Missing Value Source: NWS Daily Summary

Daily Weather History Graph

Daily Weather History Graph

Search for Another Location

Airport or City:

Trip Planner

Search our weather history database for the weather conditions in past years. The results will help you decide how hot, cold, wet, or windy it might be!

Date:

Astronomy

Jul. 22, 2014 Rise Set
Actual Time 5:58 AM CDT 8:41 PM CDT
Civil Twilight 5:26 AM CDT 9:14 PM CDT
Nautical Twilight 4:45 AM CDT 9:54 PM CDT
Astronomical Twilight 3:59 AM CDT 10:40 PM CDT
Moon 2:33 AM CDT (7/22) 5:19 PM CDT (7/22)
Length of Visible Light 15h 47m
Length of Day
14h 42m
Waning Crescent, 16% of the Moon is Illuminated
Jul 22
Waning Crescent
Jul 26
New
Aug 3
First Quarter
Aug 10
Full
Aug 17
Last Quarter

Hourly Weather History & Observations

Time (CDT) Temp. Heat Index Dew Point Humidity Pressure Visibility Wind Dir Wind Speed Gust Speed Precip Events Conditions
12:15 AM 80.6 °F 86.2 °F 75.2 °F 84% 29.92 in 10.0 mi South 11.5 mph - N/A   Clear
12:35 AM 80.6 °F 86.2 °F 75.2 °F 84% 29.92 in 10.0 mi South 11.5 mph - N/A   Clear
12:55 AM 82.4 °F 89.5 °F 75.2 °F 79% 29.92 in 10.0 mi South 10.4 mph 18.4 mph N/A   Clear
1:15 AM 80.6 °F 86.2 °F 75.2 °F 84% 29.91 in 10.0 mi South 13.8 mph - N/A   Clear
1:35 AM 80.6 °F 86.2 °F 75.2 °F 84% 29.91 in 10.0 mi SSW 11.5 mph - N/A   Clear
1:55 AM 80.6 °F 86.2 °F 75.2 °F 84% 29.91 in 10.0 mi South 9.2 mph 16.1 mph N/A   Clear
2:15 AM 80.6 °F 86.2 °F 75.2 °F 84% 29.91 in 10.0 mi South 9.2 mph 17.3 mph N/A   Clear
2:35 AM 80.6 °F 86.2 °F 75.2 °F 84% 29.90 in 10.0 mi South 10.4 mph 16.1 mph N/A   Clear
2:55 AM 80.6 °F 86.2 °F 75.2 °F 84% 29.90 in 10.0 mi South 8.1 mph - N/A   Clear
3:15 AM 82.4 °F 89.5 °F 75.2 °F 79% 29.89 in 10.0 mi SSW 13.8 mph 20.7 mph N/A   Clear
3:35 AM 80.6 °F 86.2 °F 75.2 °F 84% 29.89 in 10.0 mi SSW 10.4 mph - N/A   Clear
3:55 AM 80.6 °F 86.2 °F 75.2 °F 84% 29.89 in 10.0 mi South 9.2 mph - N/A   Clear
4:15 AM 80.6 °F 86.2 °F 75.2 °F 84% 29.90 in 10.0 mi SSW 9.2 mph 15.0 mph N/A   Clear
4:35 AM 80.6 °F 86.2 °F 75.2 °F 84% 29.90 in 10.0 mi South 9.2 mph - N/A   Clear
4:55 AM 80.6 °F 86.2 °F 75.2 °F 84% 29.91 in 10.0 mi South 8.1 mph - N/A   Clear
5:15 AM 80.6 °F 86.2 °F 75.2 °F 84% 29.91 in 10.0 mi South 8.1 mph - N/A   Clear
6:35 AM 80.6 °F 86.2 °F 75.2 °F 84% 29.92 in 8.0 mi SSW 15.0 mph - N/A   Mostly Cloudy
6:55 AM 78.8 °F - 75.2 °F 89% 29.92 in 7.0 mi SSW 12.7 mph - N/A   Scattered Clouds
7:15 AM 78.8 °F - 75.2 °F 89% 29.89 in 7.0 mi SSE 11.5 mph - N/A   Scattered Clouds
7:35 AM 78.8 °F - 75.2 °F 89% 29.92 in 7.0 mi SW 8.1 mph - N/A   Clear
7:55 AM 78.8 °F - 75.2 °F 89% 29.93 in 8.0 mi WSW 8.1 mph 15.0 mph N/A   Clear
8:15 AM 80.6 °F 86.2 °F 75.2 °F 84% 29.93 in 8.0 mi Variable 6.9 mph 13.8 mph N/A   Clear
8:35 AM 82.4 °F 89.5 °F 75.2 °F 79% 29.94 in 8.0 mi West 9.2 mph - N/A   Clear
8:55 AM 82.4 °F 90.9 °F 77.0 °F 84% 29.94 in 8.0 mi West 11.5 mph - N/A   Clear
9:15 AM 84.2 °F 94.1 °F 77.0 °F 79% 29.95 in 9.0 mi WNW 9.2 mph 16.1 mph N/A   Clear
9:35 AM 84.2 °F 94.1 °F 77.0 °F 79% 29.94 in 9.0 mi WNW 6.9 mph 20.7 mph N/A   Clear
9:55 AM 86.0 °F 96.9 °F 77.0 °F 74% 29.95 in 10.0 mi NW 11.5 mph - N/A   Clear
10:15 AM 86.0 °F 96.9 °F 77.0 °F 74% 29.96 in 8.0 mi NW 10.4 mph - N/A   Partly Cloudy
10:35 AM 86.0 °F 96.9 °F 77.0 °F 74% 29.96 in 8.0 mi Variable 5.8 mph 13.8 mph N/A   Scattered Clouds
10:55 AM 84.2 °F 94.1 °F 77.0 °F 79% 29.96 in 9.0 mi NNE 4.6 mph - N/A   Partly Cloudy
11:15 AM 86.0 °F 96.9 °F 77.0 °F 74% 29.96 in 9.0 mi NNE 4.6 mph - N/A   Scattered Clouds
11:35 AM 86.0 °F 96.9 °F 77.0 °F 74% 29.95 in 9.0 mi Variable 4.6 mph - N/A   Partly Cloudy
12:15 PM 86.0 °F 96.9 °F 77.0 °F 74% 29.96 in 9.0 mi Calm Calm - N/A   Partly Cloudy
12:35 PM 86.0 °F 96.9 °F 77.0 °F 74% 29.96 in 9.0 mi SE 5.8 mph - N/A   Clear
12:55 PM 87.8 °F 102.5 °F 78.8 °F 75% 29.96 in 9.0 mi SSE 5.8 mph 11.5 mph N/A   Clear
1:15 PM 86.0 °F 99.3 °F 78.8 °F 79% 29.95 in 8.0 mi ESE 5.8 mph - N/A   Clear
1:35 PM 87.8 °F 102.5 °F 78.8 °F 75% 29.99 in 8.0 mi Variable 5.8 mph - N/A   Scattered Clouds
1:55 PM 86.0 °F 99.3 °F 78.8 °F 79% 29.99 in 9.0 mi NNW 10.4 mph - N/A   Mostly Cloudy
2:15 PM 86.0 °F 99.3 °F 78.8 °F 79% 30.00 in 8.0 mi North 9.2 mph - N/A   Mostly Cloudy
2:35 PM 87.8 °F 99.7 °F 77.0 °F 70% 30.01 in 9.0 mi NW 12.7 mph - N/A   Scattered Clouds
2:55 PM 89.6 °F 98.2 °F 73.4 °F 59% 30.02 in 10.0 mi NNW 13.8 mph 21.9 mph N/A   Mostly Cloudy
3:15 PM 89.6 °F 98.2 °F 73.4 °F 59% 30.01 in 10.0 mi North 12.7 mph 18.4 mph N/A   Partly Cloudy
3:35 PM 89.6 °F 99.8 °F 75.2 °F 62% 30.01 in 10.0 mi NNW 8.1 mph - N/A   Clear
3:55 PM 89.6 °F 99.8 °F 75.2 °F 62% 30.01 in 10.0 mi North 10.4 mph - N/A   Clear
4:15 PM 89.6 °F 99.8 °F 75.2 °F 62% 30.02 in 10.0 mi North 9.2 mph 15.0 mph N/A   Clear
4:35 PM 89.6 °F 96.2 °F 71.6 °F 55% 30.01 in 10.0 mi NNW 11.5 mph - N/A   Clear
4:55 PM 87.8 °F 93.8 °F 71.6 °F 58% 30.00 in 10.0 mi North 8.1 mph 15.0 mph N/A   Clear
5:15 PM 87.8 °F 93.8 °F 71.6 °F 58% 30.03 in 10.0 mi NNW 13.8 mph - N/A   Clear
5:35 PM 87.8 °F 93.8 °F 71.6 °F 58% 30.04 in 10.0 mi NNW 17.3 mph - N/A   Clear
5:55 PM 86.0 °F 91.8 °F 71.6 °F 62% 30.04 in 10.0 mi NNW 12.7 mph 18.4 mph N/A   Clear
6:15 PM 84.2 °F 89.6 °F 71.6 °F 66% 30.04 in 10.0 mi NNW 10.4 mph 18.4 mph N/A   Clear
6:35 PM 84.2 °F 89.6 °F 71.6 °F 66% 30.03 in 10.0 mi North 9.2 mph - N/A   Clear
6:55 PM 84.2 °F 88.4 °F 69.8 °F 62% 30.04 in 10.0 mi NNW 11.5 mph - N/A   Clear
7:15 PM 84.2 °F 88.4 °F 69.8 °F 62% 30.04 in 10.0 mi North 6.9 mph 18.4 mph N/A   Clear
7:35 PM 84.2 °F 88.4 °F 69.8 °F 62% 30.05 in 10.0 mi North 9.2 mph - N/A   Clear
7:55 PM 82.4 °F 86.3 °F 69.8 °F 66% 30.05 in 10.0 mi NNW 10.4 mph 17.3 mph N/A   Clear
8:15 PM 82.4 °F 86.3 °F 69.8 °F 66% 30.06 in 10.0 mi NNW 11.5 mph - N/A   Clear
8:35 PM 80.6 °F 83.9 °F 69.8 °F 70% 30.06 in 10.0 mi NNW 9.2 mph - N/A   Clear
8:55 PM 78.8 °F - 69.8 °F 74% 30.06 in 10.0 mi NNW 10.4 mph 16.1 mph N/A   Clear
9:15 PM 78.8 °F - 69.8 °F 74% 30.07 in 10.0 mi NNW 12.7 mph 18.4 mph N/A   Clear
9:35 PM 78.8 °F - 68.0 °F 69% 30.08 in 10.0 mi North 9.2 mph - N/A   Clear
9:55 PM 77.0 °F - 68.0 °F 74% 30.08 in 10.0 mi North 9.2 mph - N/A   Clear
10:15 PM 77.0 °F - 68.0 °F 74% 30.09 in 10.0 mi North 9.2 mph - N/A   Clear
10:35 PM 77.0 °F - 66.2 °F 69% 30.10 in 10.0 mi North 11.5 mph - N/A   Clear
10:55 PM 75.2 °F - 66.2 °F 73% 30.10 in 10.0 mi North 10.4 mph - N/A   Clear
11:15 PM 75.2 °F - 66.2 °F 73% 30.11 in 10.0 mi North 9.2 mph 15.0 mph N/A   Clear
11:35 PM 75.2 °F - 66.2 °F 73% 30.12 in 10.0 mi NNW 9.2 mph - N/A   Clear
11:55 PM 73.4 °F - 66.2 °F 78% 30.13 in 10.0 mi North 8.1 mph - N/A   Clear